Погода в Семлячики

Погода в Семлячики : погода сейчас, прогноз погоды и архив. Всё, что Вы хотите узнать о погоде в Семлячики!

Хотите узнать прогноз погоды в Семлячики? Тогда Вам сюда: Погода в Семлячики

Поиск расширенной информации на нашем сайте:

Другие новости

Новости СМИ2

Главная страница сайта

Новости сайта

03.07.2017

Напоминаем, что на нашем специализированном сайте Метеоцентр.Азия вы можете получить высокодетализированные автоматические прогнозы погоды по пунктам России, СНГ и мира в авиационном формате (включающие направление и скорость ветра, видимость, явления погоды, количество и форму облачности, нижнюю и верхнюю границу облачности).

Рекомендуем: перевозка пассажиров в Воронеже

Погода в Семлячики - сегодня

Время (UTC), дата Ветер
(°,м/с) 
Видим.   Явления Облачность Т
(°С)
Тd
(°С)
f(%) Тe
(°С)
Pmin
(гПа)
dP
(гПа)
Po
(мм)
O2
(г/м3)
Тmin Tmax R s Состояние
почвы
03 13.02.18 220 (ЮЗ) 20000 м    10/10 600 м 
[Sc]
-0.5 -9.4 51 -4  967  0.9  723  293           
06 13.02.18 220 (ЮЗ) 20000 м    9/5 600 м средняя 
[Sc|Ac trans]
-0.3 -7.9 56 -3  969.2  2.2  724  293           
09 13.02.18 210 (ЮЗ) 8-11{11}  20000 м    10/10 600 м 
[Sc]
-1.3 -9.2 55 -6  972.6  3.4  727  295    -0       
12 13.02.18 220 (ЮЗ) 6{11}  20000 м    10/10 600 м 
[Sc]
-2.1 -11 50 -6  975  2.4  729  297           
15 13.02.18 210 (ЮЗ) 4{11}  20000 м    10/10 600 м 
[Sc]
-2.8 -11.5 51 -6  976.7  1.6  730  298           
18 13.02.18 240 (ЮЗ) 6{10}  20000 м    10/5 600 м средняя 
[Sc|Ac trans]
-2.8 -14.3 41 -7  978.7  731  299           
21 13.02.18 290 (З) 7-12{12}  20000 м    9/3 600 м средняя, верхняя 
[Sc|Ac trans|Ci fib]
-3.4 -15.8 38 -8  980.8  2.2  733  300  -3.4      65  неравномерный
мокрый или
старый снег
100% 
06 14.02.18 280 (З) 6{14}  20000 м    9/6 600 м верхняя 
[Sc|Ci sp]
-4.1 -16.1 39 -8  986.3  2.2  737  303           
09 14.02.18 260 (З) 5{13}  20000 м    9/6 600 м верхняя 
[Sc|Ci sp]
-5 -15.3 44 -9  988.3  739  304    -2.7       
12 14.02.18 260 (З) 5{11}  20000 м    9/6 600 м верхняя 
[Sc|Ci sp]
-5.6 -16.5 42 -10  990.3  740  306           
18 14.02.18 310 (СЗ) 6{12}  20000 м    8/5 600 м верхняя 
[Sc|Ci fib]
-6.5 -18.1 39 -11  992.6  1.3  742  308           
21 14.02.18 330 (СЗ) 6-10{11}  20000 м    9/4 600 м средняя, верхняя 
[Sc|Ac trans|Ci fib]
-7.1 -18.5 40 -12  994.1  1.5  743  309  -7.2      65  равномерный
мокрый или
старый снег
100% 
06 15.02.18 320 (СЗ) 6{11}  20000 м    8/0 средняя, верхняя 
[Ac trans|Ci sp]
-6.5 -17.1 43 -11  996.3  0.9  745  309           
12 15.02.18 310 (СЗ) 20000 м    ясно 
-9 -16.8 53 -12  997.1  0.1  745  312           
15 15.02.18 330 (СЗ) 20000 м    ясно 
-8.1 -14.8 58 -12  996.6  -0.5  745  311           
18 15.02.18 340 (С) 20000 м    4/4 600 м 
[Sc]
-8.1 -11.8 75 -11  995.5  -1  744  310           
21 15.02.18 340 (С) 20000 м    6/3 930 м средняя, верхняя 
[Sc|Ac trans|Ci fib]
-7.9 -14.8 58 -13  993.9  -1.7  743  309  -9.2      64  неравномерный
мокрый или
старый снег
100% 
00 16.02.18 320 (СЗ) 20000 м    10/3 600 м средняя 
[Sc|Ac trans]
-7 -16.9 45 -12  991.3  -2.6  741  308           
09 16.02.18 310 (СЗ) 9-14{15}  20000 м  позёмок  10/10 600 м 
[Sc]
-6.2 -13.9 54 -12  988.6  0.4  739  306    -5.1  0.7     
21 16.02.18 320 (СЗ) 9-16{18}  20000 м    8/4 600 м средняя, верхняя 
[Sc|Ac trans|Ci fib]
-6 -14.8 50 -12  989.5  0.7  740  306  -6.5      65  неравномерный
мокрый или
старый снег
100% 
09 17.02.18 330 (СЗ) 10-14{15}  20000 м    ясно 
-6.7 -18.1 40 -13  992.7  1.4  742  308    -3.9       
12 17.02.18 330 (СЗ) 10-15{17}  20000 м    ясно 
-6.7 -17.8 41 -13  993.3  0.6  742  308           
15 17.02.18 320 (СЗ) 9-14{16}  20000 м    ясно 
-6.9 -17 44 -13  993.4  0.1  743  308           
18 17.02.18 320 (СЗ) 10-14{17}  20000 м    ясно 
-6.9 -17.4 43 -13  993.7  0.2  743  308           
21 17.02.18 320 (СЗ) 10-15{16}  20000 м    ясно 
-7.4 -18.3 41 -14  994.1  0.5  743  309  -7.4      64  неравномерный
мокрый или
старый снег
100% 
Время (UTC), дата Ветер
(°,м/с) 
Видим.   Явления Облачность Т
(°С)
Тd
(°С)
f(%) Тe
(°С)
Pmin
(гПа)
dP
(гПа)
Po
(мм)
O2
(г/м3)
Тmin Tmax R s Состояние
почвы

Для получения пояснительной информации подведите курсор к названию столбца.

ПОГОДА в Семлячики - архив

Всё, что Вы хотите узнать о погоде в Семлячики - удобно и подробно!

Выберите нужную дату (начиная с 1 января 2015* года) и нажмите кнопку "Найти".
Будут отображены архивные сводки погоды по пункту Семлячики, начиная с указанной даты.


Отображать данные в формате CSV (для использования в таблицах Excel)


Внимание! Наш архив погоды предназначен исключительно для личного некоммерческого использования в познавательных целях. Если Вам необходимы официальные справки о состоянии погоды (для производственных, юридических, коммерческих и т.п. целей), обращайтесь в органы Росгидромета.

*Примечание: данная дата относится к архиву по метеостанциям СССР (Россия, СНГ, Балтия).
Архив по метеостанциям Зарубежной Европы и Азии (кроме Китая) хранится 10 дней, по другим регионам земного шара (Китай, Африка, Америка, Австралия, Океания) - 1 день.

Семлячики - район местоположения метеостанции


Название, широта, долгота, высота метеостанции:
Семлячики 54.1°ш. 160°д. 27 м над ур. моря [Российская Федерация]

Дополнительная информация

В oтличие oт бoльшинства пoгoдных сайтoв мы публикуем пoдрoбную метеoинфoрмацию в детальнoм прoфессиoнальнoм фoрмате.

Характеристики температуры и влажнoсти вoздуха измеряются на высoте 2 м в тени вдали oт зданий и деревьев.
Скoрoсть ветра измеряется на высoте 10 м (на урoвне рoста челoвека скoрoсть ветра ниже в 1.5-2 раза). Если метеoстанция нахoдится в гoрoде или в лесу, тo скoрoсть ветра занижена на 2-4 м/с пo сравнению с oткрытым местoм. Скoрoсть ветра над акватoриями крупных рек и oзёр, а также на вершинах хoлмoв на 2-5 м/с выше, чем в oбычных услoвиях.
Атмoсфернoе давление в разных тoчках местнoсти мoжет значительнo oтличаться oт давления на метеoстанции, в зависимoсти oт услoвий рельефа (при пoдъёме на 10 м давление пoнижается примернo на 1 мм рт.ст.).